Location: ??????
(38.0131°N, 23.7723°E)
Time: 02:12:12
(UTC+00:00)

CZ-4B R/B - Pass Details

Date: 17 October 2021
Orbit: 808 x 882 km, 99.1° (Epoch: 04 December)

Event Time Altitude Azimuth Distance (km) Brightness Sun altitude
Rises 16:35:04 0° 166° (SSE) 3,438 6.3 -10.7°
Reaches altitude 10° 16:37:26 10° 167° (SSE) 2,512 5.6 -11.2°
Maximum altitude 16:43:02 84° 255° (WSW) 889 3.4 -12.3°
Drops below altitude 10° 16:48:45 10° 345° (NNW) 2,548 5.9 -13.4°
Sets 16:51:09 0° 346° (NNW) 3,490 6.6 -13.9°
